Date String (YYYY-MM-DD hh:mm:ss) UTC,Instrument flags,Ambient pressure (hPa),Sample flow (lpm),Bypass flow (lpm),Sample temperature (°C),Ambient temperature (°C),ASC tube jacket temperature (°C),LED temperature (°C),Box temperature (°C),Sample RH (%),Span deviation,Mass concentration (μg/m³),Mass concentration (μg/m³),Mass concentration (μg/m³)
DateTimeUTC,F1_M11,P_M11,Q1_M11,Q2_M11,T1_M11,T2_M11,T3_M11,T4_M11,T5_M11,U1_M11,ZSPAN_M11,X0_M11,X2_M11,X1_M11
2021-09-06 15:00:00,,0830.2,5.01,0.00,29.9,27.1,00.0,39.1,31.4,12.9,0002.9,0029.57,0015.31,0014.34
2021-09-06 15:01:00,,0830.3,5.00,0.00,29.9,27.5,00.0,39.0,31.4,12.4,0002.4,0028.68,0015.60,0014.63
2021-09-06 15:02:00,,0830.3,4.99,0.00,29.8,27.8,00.0,39.0,31.5,14.3,0002.6,0029.37,0015.93,0014.88
2021-09-06 15:03:00,,0830.3,5.01,0.00,29.9,28.1,00.0,39.0,31.5,16.0,0002.6,0030.06,0016.03,0014.87
2021-09-06 15:04:00,,0830.3,5.00,0.00,29.9,28.4,00.0,39.0,31.6,17.1,0002.6,0031.61,0016.18,0014.83
2021-09-06 15:05:00,,0830.3,4.99,0.00,29.9,28.6,00.0,39.0,31.7,16.3,0002.4,0033.28,0016.22,0014.72
2021-09-06 15:06:00,,0830.3,4.99,0.00,30.0,28.7,00.0,39.0,31.7,15.9,0002.4,0033.29,0016.11,0014.60
2021-09-06 15:07:00,,0830.3,5.01,0.00,30.0,28.9,00.0,39.0,31.8,14.9,0003.0,0033.25,0016.01,0014.49
2021-09-06 15:08:00,,0830.3,5.00,0.00,30.0,29.0,00.0,39.1,31.8,15.2,0003.1,0033.44,0015.90,0014.33
2021-09-06 15:09:00,,0830.3,5.00,0.00,30.1,29.1,00.0,39.1,31.9,14.7,0003.0,0031.98,0015.65,0014.05
2021-09-06 15:10:00,,0830.3,4.99,0.00,30.1,29.0,00.0,39.1,31.9,14.4,0002.9,0031.61,0015.37,0013.75
2021-09-06 15:11:00,,0830.3,5.02,0.00,30.0,27.5,00.0,39.1,31.5,14.5,0002.9,0031.74,0015.11,0013.49
2021-09-06 15:12:00,,0830.3,4.99,0.00,29.9,26.5,00.0,39.0,31.2,14.6,0003.2,0031.46,0014.89,0013.24
2021-09-06 15:13:00,,0830.3,5.01,0.00,29.8,26.8,00.0,39.0,31.3,14.3,0003.2,0029.95,0014.63,0013.03
2021-09-06 15:14:00,,0830.2,4.99,0.00,29.8,27.3,00.0,39.0,31.3,14.0,0003.0,0028.80,0014.59,0013.10
2021-09-06 15:15:00,,0830.3,5.00,0.00,29.8,27.6,00.0,39.0,31.4,12.5,0003.0,0027.20,0014.60,0013.30
2021-09-06 15:16:00,,0830.3,5.00,0.00,29.8,28.0,00.0,38.9,31.5,13.8,0003.2,0025.71,0014.68,0013.51
2021-09-06 15:17:00,,0830.2,5.01,0.00,29.8,28.2,00.0,38.9,31.5,14.2,0003.3,0025.45,0014.77,0013.58
2021-09-06 15:18:00,,0830.3,4.99,0.00,29.9,28.5,00.0,38.9,31.6,14.3,0002.7,0025.18,0014.85,0013.69
2021-09-06 15:19:00,,0830.2,5.01,0.00,29.9,28.7,00.0,38.9,31.7,15.0,0002.4,0023.69,0014.84,0013.73
2021-09-06 15:20:00,,0830.2,5.00,0.00,29.9,28.8,00.0,39.0,31.7,14.8,0002.5,0023.85,0014.80,0013.77
2021-09-06 15:21:00,,0830.2,4.99,0.00,30.0,28.9,00.0,39.0,31.7,15.6,0002.4,0024.48,0014.77,0013.77
2021-09-06 15:22:00,,0830.3,5.00,0.00,30.0,29.1,00.0,39.0,31.8,15.0,0003.1,0024.04,0014.79,0013.78
2021-09-06 15:23:00,,0830.2,5.01,0.00,30.1,29.1,00.0,39.0,31.9,15.0,0003.1,0024.81,0014.82,0013.83
2021-09-06 15:24:00,,0830.3,5.00,0.00,30.0,28.1,00.0,39.0,31.6,15.2,0002.6,0026.65,0014.79,0013.82
2021-09-06 15:25:00,,0830.2,5.00,0.00,29.9,26.6,00.0,39.0,31.2,14.6,0002.8,0027.16,0014.74,0013.78
2021-09-06 15:26:00,,0830.2,5.00,0.00,29.8,26.7,00.0,39.0,31.2,15.0,0003.0,0027.38,0014.64,0013.68
2021-09-06 15:27:00,,0830.2,5.01,0.00,29.8,27.1,00.0,39.0,31.3,15.0,0002.8,0028.06,0014.54,0013.56
2021-09-06 15:28:00,,0830.2,4.98,0.00,29.8,27.5,00.0,38.9,31.4,15.3,0002.8,0026.72,0014.44,0013.53
2021-09-06 15:29:00,,0830.2,5.01,0.00,29.8,27.9,00.0,38.9,31.4,15.1,0003.0,0026.60,0014.35,0013.47
2021-09-06 15:30:00,,0830.2,5.00,0.00,29.8,28.2,00.0,38.9,31.5,14.7,0002.7,0026.44,0014.37,0013.49
2021-09-06 15:31:00,,0830.2,4.99,0.00,29.8,28.4,00.0,38.9,31.6,14.6,0002.6,0026.28,0014.37,0013.49
2021-09-06 15:32:00,,0830.2,5.01,0.00,29.9,28.6,00.0,38.9,31.7,14.4,0002.3,0026.25,0014.38,0013.49
2021-09-06 15:33:00,,0830.3,4.99,0.00,29.9,28.8,00.0,38.9,31.7,14.1,0001.4,0026.01,0014.35,0013.49
2021-09-06 15:34:00,,0830.2,5.01,0.00,30.0,28.9,00.0,38.9,31.7,14.4,0000.8,0024.88,0014.29,0013.46
2021-09-06 15:35:00,,0830.2,5.00,0.00,30.0,28.9,00.0,39.0,31.8,14.5,0000.8,0023.08,0014.29,0013.43
2021-09-06 15:36:00,,0830.2,5.01,0.00,29.9,27.5,00.0,39.0,31.4,14.5,0000.6,0022.99,0014.25,0013.37
2021-09-06 15:37:00,,0830.2,5.00,0.00,29.8,26.5,00.0,38.9,31.2,14.6,0000.8,0022.99,0014.15,0013.28
2021-09-06 15:38:00,,0830.2,4.99,0.00,29.7,26.8,00.0,38.9,31.2,14.7,0000.5,0022.32,0014.02,0013.22
2021-09-06 15:39:00,,0830.3,5.00,0.00,29.7,27.2,00.0,38.9,31.2,14.1,0000.7,0022.96,0013.99,0013.21
2021-09-06 15:40:00,,0830.2,5.00,0.00,29.7,27.6,00.0,38.8,31.3,13.3,0000.3,0023.63,0014.10,0013.26
2021-09-06 15:41:00,,0830.2,5.01,0.00,29.7,27.9,00.0,38.8,31.4,13.1,0000.4,0024.01,0014.18,0013.32
2021-09-06 15:42:00,,0830.3,4.99,0.00,29.7,28.2,00.0,38.8,31.5,12.7,0000.1,0023.53,0014.32,0013.42
2021-09-06 15:43:00,,0830.2,5.00,0.00,29.8,28.4,00.0,38.8,31.5,12.1,-000.0,0023.07,0014.48,0013.56
2021-09-06 15:44:00,,0830.2,5.00,0.00,29.8,28.6,00.0,38.8,31.6,11.3,0000.2,0023.73,0014.63,0013.72
2021-09-06 15:45:00,,0830.2,5.00,0.00,29.9,28.8,00.0,38.9,31.7,11.5,0000.3,0024.06,0014.83,0013.92
2021-09-06 15:46:00,,0830.2,5.01,0.00,29.9,28.9,00.0,38.9,31.8,11.2,0000.5,0024.36,0015.01,0014.12
2021-09-06 15:47:00,,0830.2,4.99,0.00,29.9,28.7,00.0,38.9,31.7,11.6,0001.0,0024.31,0015.20,0014.36
2021-09-06 15:48:00,,0830.2,5.01,0.00,29.9,27.0,00.0,38.9,31.3,12.6,0000.9,0024.00,0015.38,0014.56
2021-09-06 15:49:00,,0830.2,4.99,0.00,29.7,26.5,00.0,38.8,31.0,12.6,0001.3,0023.95,0015.61,0014.76
2021-09-06 15:50:00,,0830.3,5.00,0.00,29.7,26.9,00.0,38.8,31.1,13.6,0001.1,0023.80,0015.83,0014.92
2021-09-06 15:51:00,,0830.2,5.00,0.00,29.7,27.3,00.0,38.8,31.2,13.2,0001.5,0023.23,0015.91,0015.01
2021-09-06 15:52:00,,0830.3,5.00,0.00,29.7,27.7,00.0,38.8,31.3,12.5,0001.6,0023.26,0016.00,0015.09
2021-09-06 15:53:00,,0830.2,5.00,0.00,29.7,28.0,00.0,38.8,31.4,12.8,0002.0,0023.46,0016.01,0015.13
2021-09-06 15:54:00,,0830.2,4.98,0.00,29.7,28.3,00.0,38.8,31.5,12.3,0002.2,0023.63,0016.03,0015.17
2021-09-06 15:55:00,,0830.2,5.00,0.00,29.8,28.5,00.0,38.8,31.6,11.1,0001.9,0023.44,0016.12,0015.22
2021-09-06 15:56:00,,0830.3,5.01,0.00,29.8,28.7,00.0,38.8,31.7,10.9,0001.7,0023.64,0016.12,0015.24
2021-09-06 15:57:00,,0830.3,5.00,0.00,29.9,28.6,00.0,38.8,31.6,11.4,0001.9,0024.08,0016.21,0015.29
2021-09-06 15:58:00,,0830.2,5.00,0.00,29.8,27.1,00.0,38.8,31.2,12.0,0001.5,0024.09,0016.28,0015.31
2021-09-06 15:59:00,,0830.3,5.01,0.00,29.7,26.3,00.0,38.8,31.0,12.7,0001.2,0024.23,0016.31,0015.33
